When you browse on this site, cookies collect data to enhance your experience and personalize the content and advertising you see.
Visit our Privacy Policy to learn more. By continuing to use the site, you agree to this use of cookies and data.
  • In Österreich
  • Länderverzeichnis
  • Für 7 Tage
  • Wassertemperatur
  • Satellitenkarten
  • Wetterkarte
  • News
  • Widgets
  • user-avatar
    Anmelden

    Stündliche Wetter Korçe

    Heute, 23 April, Dienstag

    Zeit Temperatur Niederschläge Wind Luftdruck Luftfeuchtigkeit
    00:00 +7°C° 0 mm 3 m/S 666 mmHg 90%
    01:00 +7°C° 0 mm 3 m/S 666 mmHg 90%
    02:00 +7°C° 0 mm 3 m/S 666 mmHg 90%
    03:00 +5°C° 0 mm 3 m/S 665 mmHg 90%
    04:00 +5°C° 0 mm 3 m/S 665 mmHg 90%
    05:00 +7°C° 0 mm 3 m/S 665 mmHg 88%
    06:00 +6°C° 0 mm 4 m/S 665 mmHg 85%
    07:00 +7°C° 0 mm 4 m/S 665 mmHg 82%
    08:00 +9°C° 0.1 mm 5 m/S 666 mmHg 73%
    09:00 +13°C° 0.1 mm 6 m/S 667 mmHg 63%
    10:00 +15°C° 0.1 mm 6 m/S 668 mmHg 54%
    11:00 +15°C° 0.1 mm 6 m/S 668 mmHg 51%
    12:00 +16°C° 0.1 mm 6 m/S 668 mmHg 49%
    13:00 +16°C° 0.1 mm 6 m/S 668 mmHg 46%
    14:00 +15°C° 0 mm 6 m/S 668 mmHg 50%
    15:00 +14°C° 0 mm 6 m/S 668 mmHg 54%
    16:00 +13°C° 0 mm 6 m/S 667 mmHg 58%
    17:00 +10°C° 0 mm 5 m/S 667 mmHg 66%
    18:00 +9°C° 0 mm 5 m/S 667 mmHg 74%
    19:00 +7°C° 0 mm 4 m/S 667 mmHg 82%
    20:00 +8°C° 0 mm 3 m/S 667 mmHg 84%
    21:00 +7°C° 0 mm 3 m/S 667 mmHg 86%
    22:00 +7°C° 0 mm 3 m/S 667 mmHg 88%
    23:00 +7°C° 0 mm 3 m/S 668 mmHg 87%

    Morgen, 24 April, Mittwoch

    Zeit Temperatur Niederschläge Wind Luftdruck Luftfeuchtigkeit
    00:00 +7°C° 0 mm 3 m/S 668 mmHg 85%
    01:00 +7°C° 0 mm 3 m/S 668 mmHg 84%
    02:00 +5°C° 0 mm 3 m/S 668 mmHg 83%
    03:00 +6°C° 0 mm 2 m/S 668 mmHg 82%
    04:00 +6°C° 0 mm 2 m/S 668 mmHg 80%
    05:00 +8°C° 0 mm 2 m/S 668 mmHg 77%
    06:00 +9°C° 0 mm 2 m/S 669 mmHg 73%
    07:00 +10°C° 0 mm 2 m/S 669 mmHg 70%
    08:00 +13°C° 0 mm 2 m/S 670 mmHg 62%
    09:00 +16°C° 0 mm 3 m/S 671 mmHg 54%
    10:00 +18°C° 0 mm 3 m/S 671 mmHg 46%
    11:00 +18°C° 0 mm 3 m/S 671 mmHg 45%
    12:00 +19°C° 0 mm 3 m/S 672 mmHg 43%
    13:00 +20°C° 0 mm 3 m/S 672 mmHg 42%
    14:00 +20°C° 0 mm 3 m/S 671 mmHg 44%
    15:00 +19°C° 0 mm 2 m/S 671 mmHg 45%
    16:00 +19°C° 0 mm 2 m/S 671 mmHg 47%
    17:00 +17°C° 0 mm 2 m/S 671 mmHg 57%
    18:00 +15°C° 0 mm 1 m/S 670 mmHg 66%
    19:00 +12°C° 0 mm 1 m/S 670 mmHg 75%
    20:00 +12°C° 0 mm 1 m/S 670 mmHg 77%
    21:00 +11°C° 0 mm 1 m/S 670 mmHg 79%
    22:00 +11°C° 0 mm 1 m/S 671 mmHg 81%
    23:00 +10°C° 0 mm 1 m/S 670 mmHg 81%

    übermorgen, 25 April, Donnerstag

    Zeit Temperatur Niederschläge Wind Luftdruck Luftfeuchtigkeit
    00:00 +10°C° 0 mm 1 m/S 670 mmHg 81%
    01:00 +9°C° 0 mm 2 m/S 670 mmHg 82%
    02:00 +8°C° 0 mm 2 m/S 670 mmHg 79%
    03:00 +8°C° 0 mm 2 m/S 670 mmHg 76%
    04:00 +8°C° 0 mm 2 m/S 669 mmHg 73%
    05:00 +9°C° 0 mm 2 m/S 670 mmHg 68%
    06:00 +12°C° 0 mm 2 m/S 670 mmHg 63%
    07:00 +13°C° 0 mm 2 m/S 671 mmHg 59%
    08:00 +16°C° 0 mm 2 m/S 671 mmHg 51%
    09:00 +18°C° 0 mm 2 m/S 672 mmHg 42%
    10:00 +20°C° 0 mm 2 m/S 673 mmHg 34%
    11:00 +21°C° 0 mm 2 m/S 673 mmHg 33%
    12:00 +23°C° 0 mm 2 m/S 673 mmHg 33%
    13:00 +23°C° 0 mm 2 m/S 673 mmHg 32%
    14:00 +23°C° 0 mm 2 m/S 672 mmHg 36%
    15:00 +22°C° 0 mm 1 m/S 672 mmHg 40%
    16:00 +21°C° 0 mm 1 m/S 671 mmHg 44%
    17:00 +19°C° 0 mm 1 m/S 671 mmHg 53%
    18:00 +16°C° 0 mm 1 m/S 670 mmHg 62%
    19:00 +13°C° 0 mm 0 m/S 670 mmHg 70%
    20:00 +14°C° 0.2 mm 1 m/S 670 mmHg 74%
    21:00 +13°C° 0.2 mm 1 m/S 670 mmHg 78%
    22:00 +13°C° 0.2 mm 1 m/S 670 mmHg 82%
    23:00 +12°C° 0.1 mm 1 m/S 670 mmHg 83%

    26 April, Freitag

    Zeit Temperatur Niederschläge Wind Luftdruck Luftfeuchtigkeit
    00:00 +12°C° 0.1 mm 1 m/S 670 mmHg 84%
    01:00 +12°C° 0.1 mm 1 m/S 669 mmHg 85%
    02:00 +11°C° 0 mm 1 m/S 669 mmHg 86%
    03:00 +11°C° 0 mm 1 m/S 669 mmHg 87%
    04:00 +11°C° 0 mm 1 m/S 669 mmHg 88%
    05:00 +12°C° 0 mm 1 m/S 669 mmHg 84%
    06:00 +13°C° 0 mm 1 m/S 670 mmHg 80%
    07:00 +15°C° 0 mm 1 m/S 670 mmHg 76%
    08:00 +18°C° 0 mm 1 m/S 671 mmHg 67%
    09:00 +20°C° 0 mm 1 m/S 672 mmHg 59%
    10:00 +20°C° 0 mm 0 m/S 672 mmHg 51%
    11:00 +23°C° 0 mm 1 m/S 672 mmHg 49%
    12:00 +23°C° 0 mm 1 m/S 672 mmHg 47%
    13:00 +24°C° 0 mm 1 m/S 672 mmHg 44%
    14:00 +23°C° 0 mm 2 m/S 671 mmHg 48%
    15:00 +21°C° 0 mm 2 m/S 671 mmHg 52%
    16:00 +21°C° 0 mm 2 m/S 671 mmHg 55%
    17:00 +19°C° 0 mm 2 m/S 670 mmHg 63%
    18:00 +18°C° 0 mm 1 m/S 670 mmHg 72%
    19:00 +15°C° 0 mm 1 m/S 669 mmHg 80%
    20:00 +14°C° 0 mm 1 m/S 669 mmHg 82%
    21:00 +13°C° 0 mm 0 m/S 669 mmHg 83%
    22:00 +12°C° 0 mm 0 m/S 669 mmHg 85%
    23:00 +12°C° 0 mm 0 m/S 669 mmHg 86%

    27 April, Samstag

    Zeit Temperatur Niederschläge Wind Luftdruck Luftfeuchtigkeit
    00:00 +12°C° 0 mm 0 m/S 669 mmHg 86%
    01:00 +11°C° 0 mm 0 m/S 669 mmHg 87%
    02:00 +11°C° 0 mm 0 m/S 669 mmHg 87%
    03:00 +12°C° 0 mm 1 m/S 668 mmHg 87%
    04:00 +12°C° 0 mm 1 m/S 668 mmHg 87%
    05:00 +13°C° 0 mm 1 m/S 669 mmHg 81%
    06:00 +13°C° 0 mm 0 m/S 669 mmHg 75%
    07:00 +15°C° 0 mm 0 m/S 670 mmHg 68%
    08:00 +18°C° 0 mm 1 m/S 670 mmHg 60%
    09:00 +20°C° 0 mm 1 m/S 670 mmHg 52%
    10:00 +20°C° 0 mm 2 m/S 670 mmHg 43%
    11:00 +20°C° 0 mm 2 m/S 670 mmHg 44%
    12:00 +21°C° 0 mm 2 m/S 670 mmHg 44%
    13:00 +21°C° 0 mm 3 m/S 670 mmHg 44%
    14:00 +21°C° 0.3 mm 3 m/S 669 mmHg 48%
    15:00 +20°C° 0.3 mm 3 m/S 669 mmHg 53%
    16:00 +19°C° 0.3 mm 3 m/S 668 mmHg 57%
    17:00 +17°C° 0.2 mm 2 m/S 668 mmHg 67%
    18:00 +15°C° 0.2 mm 2 m/S 667 mmHg 77%
    19:00 +13°C° 0.2 mm 2 m/S 667 mmHg 87%
    20:00 +12°C° 0.1 mm 2 m/S 667 mmHg 90%
    21:00 +11°C° 0.1 mm 1 m/S 667 mmHg 92%
    22:00 +11°C° 0.1 mm 1 m/S 667 mmHg 95%
    23:00 +10°C° 0 mm 1 m/S 667 mmHg 95%

    28 April, Sonntag

    Zeit Temperatur Niederschläge Wind Luftdruck Luftfeuchtigkeit
    00:00 +10°C° 0 mm 1 m/S 667 mmHg 95%
    01:00 +9°C° 0 mm 1 m/S 667 mmHg 94%
    02:00 +9°C° 0 mm 1 m/S 666 mmHg 92%
    03:00 +8°C° 0 mm 1 m/S 666 mmHg 89%
    04:00 +8°C° 0 mm 1 m/S 666 mmHg 86%
    05:00 +9°C° 0 mm 1 m/S 666 mmHg 77%
    06:00 +11°C° 0 mm 1 m/S 666 mmHg 68%
    07:00 +12°C° 0 mm 1 m/S 667 mmHg 60%
    08:00 +13°C° 0 mm 2 m/S 667 mmHg 51%
    09:00 +15°C° 0 mm 2 m/S 668 mmHg 42%
    10:00 +16°C° 0 mm 2 m/S 668 mmHg 34%
    11:00 +17°C° 0 mm 2 m/S 668 mmHg 33%
    12:00 +17°C° 0 mm 2 m/S 668 mmHg 32%
    13:00 +18°C° 0 mm 3 m/S 668 mmHg 31%
    14:00 +17°C° 0 mm 3 m/S 667 mmHg 35%
    15:00 +17°C° 0 mm 3 m/S 667 mmHg 39%
    16:00 +16°C° 0 mm 3 m/S 667 mmHg 43%
    17:00 +14°C° 0 mm 2 m/S 666 mmHg 52%
    18:00 +12°C° 0 mm 2 m/S 666 mmHg 62%
    19:00 +9°C° 0 mm 2 m/S 665 mmHg 71%
    20:00 +9°C° 0 mm 1 m/S 665 mmHg 74%
    21:00 +9°C° 0 mm 1 m/S 665 mmHg 76%
    22:00 +7°C° 0 mm 0 m/S 665 mmHg 79%
    23:00 +7°C° 0 mm 0 m/S 665 mmHg 78%
    Mehr zeigen